Voltar ao catálogo

DELTA 1 R/B

+CAMEO

AtivoSSO
NORAD 11081·ROCKET BODY·🇺🇸 United States

Lançado Oct 24, 1978 de Vandenberg Space Force Base

Loading…

Próximas Passagens (próximas 24 horas)

TLE

AtualizadoSource: Space-Track

Época: Sep 14, 2026, 05:20 UTC

1 11081U 78098B   26257.22237503  .00000013  00000-0  51063-4 0  9992
2 11081  99.4203 192.8546 0027990 281.5295  78.2718 13.86122656260140

Acompanhe DELTA 1 R/B em tempo real com AllMySat

Download on the App Store